Watonga, OK

4:43 PM CDT on July 21, 2017 (GMT -0500)
Watonga

Weather History for KJWG - January, 2013

Change the Weather History Date:

Tuesday, January 29, 2013

  Actual Average Record
Temperature  
Mean Temperature 52 °F -  
Max Temperature 66 °F 49 °F 75 °F (1971)
Min Temperature 37 °F 26 °F 1 °F (1966)
Degree Days  
Heating Degree Days 13    
Growing Degree Days 2 (Base 50)    
Moisture  
Dew Point 50 °F    
Average Humidity 90    
Maximum Humidity 100    
Minimum Humidity 81    
Precipitation  
Precipitation 0.44 in - - ()
Sea Level Pressure  
Sea Level Pressure 29.61 in    
Wind  
Wind Speed 11 mph (NW)    
Max Wind Speed 23 mph    
Max Gust Speed 39 mph    
Visibility 10 miles    
Events Rain , Thunderstorm    
Averages and records for this station are not official NWS values.
T = Trace of Precipitation, MM = Missing Value Source: NWS Daily Summary

Daily Weather History Graph

Daily Weather History Graph

Search for Another Location

Airport or City:

Trip Planner

Search our weather history database for the weather conditions in past years. The results will help you decide how hot, cold, wet, or windy it might be!

Date:

Astronomy

Jan. 29, 2013 Rise Set
Actual Time 7:36 AM CST 5:58 PM CST
Civil Twilight 7:09 AM CST 6:25 PM CST
Nautical Twilight 6:38 AM CST 6:55 PM CST
Astronomical Twilight 6:08 AM CST 7:26 PM CST
Moon 8:48 PM CST (1/29) 8:40 AM CST (1/29)
Length of Visible Light 11h 16m
Length of Day
10h 22m
Waning Gibbous, 93% of the Moon is Illuminated
Jan 29
Waning Gibbous
Feb 3
Last Quarter
Feb 10
New
Feb 17
First Quarter
Feb 25
Full

Hourly Weather History & Observations

Time (CST) Temp. Windchill Dew Point Humidity Pressure Visibility Wind Dir Wind Speed Gust Speed Precip Events Conditions
12:15 AM 66.4 °F - 60.8 °F 82% 29.71 in 10.0 mi South 13.8 mph - N/A   Clear
12:35 AM 65.8 °F - 60.8 °F 84% 29.71 in 10.0 mi South 13.8 mph 18.4 mph N/A   Clear
12:55 AM 65.3 °F - 60.8 °F 85% 29.71 in 10.0 mi South 15.0 mph 19.6 mph N/A   Clear
1:15 AM 64.4 °F - 60.8 °F 88% 29.70 in 10.0 mi SSW 12.7 mph 18.4 mph N/A   Clear
1:35 AM 63.7 °F - 60.8 °F 90% 29.70 in 10.0 mi SSW 12.7 mph - N/A   Clear
1:55 AM 63.5 °F - 60.8 °F 91% 29.70 in 10.0 mi SSW 10.4 mph - N/A   Clear
2:15 AM 63.1 °F - 60.8 °F 92% 29.69 in 10.0 mi South 8.1 mph - N/A   Clear
2:35 AM 62.6 °F - 60.8 °F 94% 29.68 in 10.0 mi South 8.1 mph - N/A   Clear
2:55 AM 62.6 °F - 61.0 °F 94% 29.67 in 10.0 mi South 9.2 mph - N/A   Clear
3:15 AM 62.8 °F - 62.2 °F 98% 29.67 in 10.0 mi South 9.2 mph - N/A   Clear
3:35 AM 63.5 °F - 63.3 °F 99% 29.67 in 10.0 mi South 10.4 mph - N/A   Clear
4:15 AM 63.5 °F - 63.5 °F 100% 29.66 in 10.0 mi South 10.4 mph - N/A   Clear
4:35 AM 63.5 °F - 63.5 °F 100% 29.65 in 10.0 mi South 8.1 mph - N/A   Scattered Clouds
4:55 AM 63.9 °F - 63.9 °F 100% 29.65 in 10.0 mi South 10.4 mph - N/A   Mostly Cloudy
5:15 AM 64.0 °F - 64.0 °F 100% 29.63 in 10.0 mi South 8.1 mph - N/A Thunderstorm Mostly Cloudy
5:35 AM 63.7 °F - 63.7 °F 100% 29.61 in 10.0 mi South 3.5 mph - N/A Thunderstorm Thunderstorm
5:55 AM 62.1 °F - 61.7 °F 99% 29.64 in 2.5 mi SW 23.0 mph 39.1 mph 0.30 in Rain , Thunderstorm Heavy Thunderstorms and Rain
6:15 AM 58.3 °F - 58.3 °F 100% 29.63 in 4.0 mi WNW 17.3 mph - 0.12 in Rain , Thunderstorm Thunderstorms and Rain
6:35 AM 59.7 °F - 59.7 °F 100% 29.63 in 10.0 mi West 12.7 mph - 0.13 in Rain Rain
6:55 AM 57.4 °F - 57.4 °F 100% 29.63 in 10.0 mi West 5.8 mph - 0.13 in   Scattered Clouds
7:15 AM 56.1 °F - 56.1 °F 100% 29.62 in 10.0 mi West 3.5 mph - N/A   Scattered Clouds
7:35 AM 55.0 °F - 55.0 °F 100% 29.62 in 10.0 mi Calm Calm - N/A Rain Light Rain
7:55 AM 54.7 °F - 54.7 °F 100% 29.63 in 10.0 mi South 3.5 mph - 0.01 in Rain Rain
8:15 AM 54.9 °F - 54.7 °F 99% 29.61 in 10.0 mi SSE 4.6 mph - N/A   Mostly Cloudy
8:35 AM 55.0 °F - 55.0 °F 100% 29.62 in 10.0 mi SSE 5.8 mph - N/A Thunderstorm Overcast
8:55 AM 54.9 °F - 54.9 °F 100% 29.61 in 10.0 mi SSW 3.5 mph - N/A   Mostly Cloudy
9:15 AM 54.7 °F - 54.7 °F 100% 29.61 in 10.0 mi SSW 3.5 mph - N/A   Overcast
9:35 AM 55.0 °F - 55.0 °F 100% 29.60 in 10.0 mi SSW 3.5 mph - N/A   Overcast
9:55 AM 55.8 °F - 55.8 °F 100% 29.60 in 10.0 mi Calm Calm - N/A   Mostly Cloudy
10:15 AM 56.5 °F - 56.5 °F 100% 29.61 in 10.0 mi SW 4.6 mph - N/A   Mostly Cloudy
10:35 AM 57.4 °F - 57.0 °F 99% 29.59 in 10.0 mi Calm Calm - N/A   Scattered Clouds
11:15 AM 59.0 °F - 56.1 °F 90% 29.57 in 10.0 mi Calm Calm - N/A   Clear
11:35 AM 60.3 °F - 54.3 °F 81% 29.58 in 10.0 mi Calm Calm - N/A   Clear
12:15 PM 56.1 °F - 53.4 °F 91% 29.56 in 10.0 mi North 17.3 mph - N/A   Clear
12:35 PM 55.4 °F - 52.2 °F 89% 29.55 in 10.0 mi North 17.3 mph - N/A   Clear
12:55 PM 54.7 °F - 50.5 °F 86% 29.54 in 10.0 mi NNE 11.5 mph - N/A   Clear
1:15 PM 53.6 °F - 49.3 °F 85% 29.54 in 10.0 mi North 15.0 mph - N/A   Clear
1:35 PM 52.7 °F - 48.2 °F 85% 29.54 in 10.0 mi North 13.8 mph - N/A   Clear
1:55 PM 52.7 °F - 47.7 °F 83% 29.54 in 10.0 mi North 9.2 mph - N/A   Scattered Clouds
2:15 PM 52.7 °F - 47.8 °F 84% 29.53 in 10.0 mi North 11.5 mph - N/A   Scattered Clouds
2:35 PM 52.0 °F - 47.5 °F 85% 29.53 in 10.0 mi North 11.5 mph - N/A   Scattered Clouds
2:55 PM 51.8 °F - 47.7 °F 86% 29.53 in 10.0 mi North 13.8 mph - N/A   Mostly Cloudy
3:15 PM 51.8 °F - 47.5 °F 85% 29.53 in 10.0 mi North 12.7 mph - N/A   Mostly Cloudy
3:35 PM 51.4 °F - 46.6 °F 83% 29.54 in 10.0 mi North 12.7 mph - N/A   Overcast
3:55 PM 52.0 °F - 46.6 °F 82% 29.54 in 10.0 mi NNW 9.2 mph - N/A   Overcast
4:15 PM 51.8 °F - 46.4 °F 82% 29.54 in 10.0 mi North 11.5 mph - N/A Rain Light Rain
4:35 PM 50.4 °F - 46.2 °F 86% 29.55 in 10.0 mi NNE 10.4 mph - N/A   Light Drizzle
4:55 PM 50.0 °F - 46.2 °F 87% 29.55 in 10.0 mi NNE 11.5 mph - N/A   Overcast
5:15 PM 49.3 °F - 45.3 °F 86% 29.55 in 10.0 mi NNE 9.2 mph - N/A Rain Light Rain
5:35 PM 49.1 °F - 45.0 °F 86% 29.55 in 10.0 mi NNE 10.4 mph - N/A   Overcast
5:55 PM 48.7 °F - 44.6 °F 86% 29.54 in 10.0 mi NNE 8.1 mph - N/A Rain Light Rain
6:15 PM 47.7 °F - 43.0 °F 84% 29.55 in 10.0 mi NE 12.7 mph - N/A   Overcast
6:35 PM 46.9 °F - 42.3 °F 84% 29.57 in 10.0 mi NE 11.5 mph - N/A   Overcast
6:55 PM 46.0 °F 39.3 °F 40.8 °F 82% 29.56 in 10.0 mi North 16.1 mph - N/A   Overcast
7:15 PM 45.5 °F 40.3 °F 40.1 °F 81% 29.62 in 10.0 mi North 10.4 mph - N/A   Overcast
7:35 PM 44.1 °F 36.8 °F 38.5 °F 81% 29.59 in 10.0 mi NNW 16.1 mph 23.0 mph N/A   Mostly Cloudy
7:55 PM 43.0 °F 35.4 °F 38.5 °F 84% 29.61 in 10.0 mi NNW 16.1 mph 19.6 mph N/A   Mostly Cloudy
8:15 PM 42.1 °F 33.9 °F 38.5 °F 87% 29.61 in 10.0 mi North 17.3 mph - N/A   Overcast
8:35 PM 41.4 °F 34.0 °F 37.4 °F 86% 29.64 in 10.0 mi NNW 13.8 mph 21.9 mph N/A   Overcast
8:55 PM 41.0 °F 33.5 °F 36.7 °F 85% 29.64 in 10.0 mi NNW 13.8 mph - N/A   Overcast
9:15 PM 40.6 °F 32.3 °F 36.7 °F 86% 29.65 in 10.0 mi NNW 16.1 mph 21.9 mph N/A   Overcast
9:35 PM 40.1 °F 31.3 °F 35.8 °F 85% 29.66 in 10.0 mi NNW 17.3 mph - N/A   Overcast
9:55 PM 40.1 °F 32.4 °F 35.6 °F 84% 29.67 in 10.0 mi NNW 13.8 mph - N/A   Overcast
10:15 PM 40.1 °F 33.2 °F 36.0 °F 85% 29.68 in 10.0 mi NNW 11.5 mph 17.3 mph N/A   Overcast
10:35 PM 39.7 °F 32.3 °F 35.4 °F 85% 29.68 in 10.0 mi NNW 12.7 mph 19.6 mph N/A   Overcast
10:55 PM 39.0 °F 31.0 °F 35.1 °F 86% 29.68 in 10.0 mi NNW 13.8 mph 19.6 mph N/A Rain Light Rain
11:15 PM 38.8 °F 30.8 °F 35.6 °F 88% 29.67 in 10.0 mi NNW 13.8 mph 19.6 mph N/A   Light Drizzle
11:35 PM 38.3 °F 29.3 °F 35.8 °F 91% 29.67 in 10.0 mi NNW 16.1 mph 21.9 mph N/A   Light Drizzle
11:55 PM 37.9 °F 30.0 °F 35.6 °F 91% 29.68 in 10.0 mi NW 12.7 mph 18.4 mph N/A   Overcast